Regional Weather Roundup
Issued by NWS

Home | Current Version | Previous Version | Graphics & Text | Print | Product List | Glossary On
Versions: 1 2 3 4 5 6 7 8 9 10 11 12 13 14 15 16 17 18 19 20 21 22 23 24 25 26 27 28 29 30 31 32 33 34 35 36 37 38 39 40 41 42 43 44 45 46 47 48 49 50
000
ASUS43 KLMK 260110
RWRKY
KENTUCKY REGIONAL WEATHER ROUNDUP
NATIONAL WEATHER SERVICE LOUISVILLE KY
900 PM EDT MON SEP 25 2017

NOTE "FAIR" INDICATES FEW OR NO CLOUDS BELOW 12,000 FEET
WITH NO SIGNIFICANT WEATHER AND/OR OBSTRUCTIONS TO VISIBILITY.

KYZ001>023-026-027-061>063-070>075-260200-
WESTERN AND SOUTH CENTRAL KENTUCKY

CITY           SKY/WX    TMP DP  RH WIND       PRES   REMARKS
PADUCAH        CLEAR     73  66  78 CALM      29.93R
HENDERSON      CLEAR     73  68  84 CALM      29.95R
OWENSBORO      CLEAR     78  68  71 CALM      29.95R
HOPKINSVILLE   CLEAR     80  65  60 CALM      29.95R
BOWLING GREEN  CLEAR     77  67  71 CALM      29.96R
GLASGOW        CLEAR     72  65  80 CALM      29.97R
$$

KYZ024-025-028>034-038-045-046-053-260200-
NORTH CENTRAL KENTUCKY

CITY           SKY/WX    TMP DP  RH WIND       PRES   REMARKS
LOUISVILLE/SDF PTCLDY    82  65  56 E5        29.96R
LOUISVILLE/LOU CLEAR     77  67  71 CALM      29.97R
FORT KNOX      CLEAR     72  67  85 CALM      29.96R
$$

KYZ035>037-039>044-047>052-055>060-089>105-260200-
NORTHEAST KENTUCKY

CITY           SKY/WX    TMP DP  RH WIND       PRES   REMARKS
LEXINGTON      CLEAR     78  64  61 E3        30.00R
COVINGTON      CLOUDY    77  66  68 SE3       29.99R
FRANKFORT      CLEAR     73  64  73 CALM      29.98R
$$

KYZ054-064>069-076>088-106>120-260200-
SOUTHEAST KENTUCKY

CITY           SKY/WX    TMP DP  RH WIND       PRES   REMARKS
JACKSON        CLEAR     73  62  68 CALM      30.02R
LONDON         CLEAR     70  65  84 CALM      30.01R
SOMERSET       CLEAR     70  63  78 CALM      30.01R
MIDDLESBORO    CLEAR     70  64  82 W3        30.02R
MONTICELLO     CLEAR     67  63  87 NE9       30.01R
$$





USA.gov is the U.S. government's official web portal to all federal, state and local government web resources and services.